GFSWCAN_prec_precacc_078.txt.gz
Total_Precipitation_Accumulation
1.10 0.82 0.60 0.68 0.80 0.58 0.47 0.44 0.53 0.52 0.56 0.57 0.45 0.56 0.45 0.40 0.75 1.64 1.65 1.11 1.07 0.84 0.27 0.27 0.13 0.06 0.02 0.03 0.17 0.15 0.11 0.18 0.31 0.36 0.22 0.10 0.04 0.01 0.01 0.05 0.21 0.24 0.16 0.08 0.09 0.11 0.03 0.00 0.01 0.06 0.06 0.02 0.04 0.02
1.22 0.93 0.60 0.56 0.68 0.55 0.46 0.42 0.47 0.46 0.47 0.58 0.48 0.52 0.44 0.36 0.55 1.08 2.00 1.66 1.00 1.26 0.53 0.24 0.23 0.09 0.02 0.01 0.04 0.15 0.06 0.04 0.11 0.17 0.15 0.12 0.09 0.05 0.00 0.01 0.03 0.19 0.20 0.13 0.05 0.03 0.01 0.01 0.01 0.01 0.02 0.03 0.01 0.02
1.15 0.89 0.75 0.66 0.57 0.52 0.43 0.44 0.52 0.44 0.41 0.51 0.50 0.50 0.46 0.43 0.57 0.65 1.36 1.43 1.73 1.55 1.36 0.40 0.29 0.20 0.09 0.02 0.04 0.14 0.07 0.04 0.05 0.07 0.20 0.18 0.20 0.09 0.06 0.02 0.01 0.03 0.04 0.11 0.08 0.02 0.04 0.04 0.04 0.01 0.01 0.05 0.07 0.13
1.08 0.89 0.82 0.82 0.60 0.45 0.33 0.39 0.56 0.48 0.43 0.42 0.50 0.48 0.55 0.62 0.66 0.51 0.84 1.18 2.32 2.11 1.72 0.67 0.19 0.22 0.20 0.08 0.06 0.09 0.07 0.06 0.16 0.19 0.29 0.35 0.25 0.11 0.09 0.04 0.04 0.05 0.06 0.04 0.04 0.01 0.04 0.04 0.04 0.10 0.18 0.26 0.24 0.18
0.93 0.89 0.88 0.76 0.58 0.40 0.37 0.47 0.62 0.57 0.52 0.45 0.60 0.62 0.83 0.99 0.79 0.53 0.66 1.04 1.78 1.47 1.04 0.79 0.48 0.15 0.30 0.26 0.24 0.14 0.09 0.19 0.36 0.43 0.33 0.27 0.04 0.06 0.06 0.06 0.09 0.03 0.01 0.04 0.04 0.06 0.11 0.12 0.24 0.42 0.32 0.21 0.21 0.15
0.86 0.73 0.72 0.66 0.54 0.56 0.58 0.69 0.69 0.64 0.52 0.52 0.74 0.97 1.13 1.03 1.00 1.04 1.56 1.37 1.11 1.17 1.48 1.08 0.62 0.26 0.41 0.50 0.45 0.55 0.20 0.32 0.37 0.43 0.25 0.21 0.15 0.12 0.15 0.07 0.01 0.00 0.00 0.04 0.06 0.05 0.15 0.27 0.26 0.14 0.13 0.10 0.05 0.01
0.72 0.61 0.60 0.63 0.56 0.68 0.80 0.78 0.73 0.59 0.64 0.80 0.99 1.03 0.89 1.22 1.27 1.50 1.28 1.09 0.89 1.12 1.43 1.31 0.78 0.35 0.53 0.60 0.46 0.77 0.56 0.54 0.47 0.51 0.47 0.20 0.13 0.34 0.33 0.12 0.01 0.01 0.02 0.02 0.03 0.09 0.13 0.14 0.11 0.06 0.02 0.00 0.00 0.00
0.77 0.60 0.51 0.58 0.54 0.56 0.76 0.86 0.75 0.77 0.92 0.91 0.92 0.97 1.30 1.99 1.75 1.27 0.76 1.05 1.04 1.12 1.14 1.30 0.87 0.65 0.62 0.74 0.48 0.41 0.54 0.86 0.57 0.57 0.41 0.41 0.31 0.37 0.39 0.06 0.00 0.00 0.01 0.01 0.01 0.03 0.08 0.06 0.01 0.00 0.00 0.00 0.01 0.06
0.50 0.44 0.48 0.50 0.44 0.41 0.44 0.63 0.83 0.94 1.06 1.24 1.41 1.58 2.00 2.19 1.71 1.08 1.17 1.84 1.61 1.62 1.39 0.78 0.64 0.93 0.99 0.77 0.60 0.51 0.47 0.77 0.77 0.57 0.44 0.40 0.47 0.37 0.14 0.09 0.07 0.02 0.01 0.01 0.00 0.00 0.01 0.02 0.01 0.01 0.02 0.06 0.13 0.13
0.53 0.48 0.56 0.60 0.49 0.36 0.33 0.44 0.72 1.04 1.65 2.10 2.25 2.35 2.83 2.20 1.49 1.43 1.88 2.11 1.82 1.37 1.04 0.57 0.46 0.83 1.18 0.92 0.77 0.71 0.87 0.66 0.54 0.37 0.44 0.42 0.32 0.27 0.19 0.19 0.13 0.06 0.03 0.02 0.02 0.02 0.02 0.03 0.03 0.06 0.12 0.13 0.09 0.04
0.60 0.58 0.52 0.52 0.56 0.60 0.58 0.58 0.81 1.40 2.23 2.69 2.80 2.58 2.26 1.94 1.76 1.62 1.73 1.40 0.99 0.52 0.34 0.36 0.43 0.68 0.89 0.89 0.83 0.84 0.89 0.77 0.62 0.36 0.34 0.34 0.17 0.11 0.15 0.16 0.14 0.16 0.14 0.09 0.06 0.06 0.08 0.15 0.25 0.19 0.09 0.05 0.04 0.06
0.62 0.52 0.43 0.39 0.37 0.38 0.38 0.54 0.77 0.95 1.56 2.04 1.73 1.53 1.92 2.06 1.75 1.45 1.19 0.83 0.36 0.14 0.09 0.15 0.51 0.78 0.81 0.85 0.90 1.13 0.80 0.60 0.44 0.27 0.41 0.32 0.24 0.15 0.09 0.13 0.14 0.09 0.07 0.09 0.14 0.22 0.25 0.22 0.16 0.17 0.20 0.24 0.31 0.37
0.57 0.39 0.27 0.26 0.27 0.41 0.49 0.52 0.56 0.88 1.21 1.29 1.37 2.02 2.18 2.11 1.70 1.16 0.56 0.30 0.16 0.10 0.07 0.14 0.47 0.78 0.84 0.92 0.93 1.16 0.96 0.75 0.41 0.43 0.36 0.23 0.13 0.22 0.18 0.16 0.17 0.07 0.10 0.16 0.14 0.11 0.12 0.15 0.20 0.24 0.31 0.39 0.35 0.36
0.48 0.39 0.35 0.38 0.36 0.43 0.53 0.63 0.83 0.91 0.81 0.99 1.48 1.75 1.51 1.27 0.89 0.58 0.23 0.09 0.08 0.07 0.09 0.11 0.20 0.32 0.66 0.84 0.80 1.01 0.91 0.65 0.65 0.45 0.32 0.39 0.48 0.35 0.18 0.13 0.16 0.14 0.15 0.16 0.21 0.23 0.25 0.25 0.30 0.35 0.33 0.32 0.21 0.22
0.44 0.42 0.42 0.59 0.57 0.47 0.49 0.59 0.72 0.58 0.51 0.77 0.78 0.84 0.72 0.62 0.45 0.27 0.18 0.13 0.15 0.16 0.28 0.40 0.49 0.39 0.56 0.98 0.78 0.83 0.73 0.59 0.44 0.40 0.45 0.44 0.34 0.24 0.29 0.31 0.26 0.31 0.33 0.36 0.38 0.34 0.37 0.32 0.25 0.34 0.34 0.25 0.13 0.12
0.37 0.38 0.58 0.58 0.40 0.33 0.48 0.48 0.60 0.46 0.44 0.34 0.45 0.43 0.40 0.33 0.35 0.32 0.28 0.33 0.33 0.36 0.46 0.61 0.60 0.59 0.73 0.62 0.48 0.54 0.47 0.45 0.50 0.36 0.28 0.23 0.27 0.33 0.42 0.46 0.46 0.46 0.41 0.41 0.47 0.42 0.40 0.33 0.23 0.24 0.22 0.16 0.13 0.09
0.42 0.35 0.39 0.37 0.40 0.41 0.34 0.48 0.41 0.36 0.43 0.33 0.45 0.37 0.35 0.31 0.34 0.32 0.29 0.38 0.34 0.39 0.41 0.42 0.36 0.35 0.33 0.26 0.28 0.31 0.47 0.44 0.36 0.35 0.35 0.36 0.40 0.46 0.49 0.43 0.39 0.38 0.41 0.40 0.39 0.32 0.26 0.21 0.13 0.07 0.10 0.11 0.06 0.04
0.56 0.26 0.27 0.30 0.27 0.30 0.36 0.37 0.32 0.32 0.37 0.44 0.44 0.66 0.44 0.42 0.39 0.35 0.35 0.39 0.38 0.20 0.13 0.16 0.15 0.12 0.15 0.19 0.34 0.47 0.39 0.42 0.40 0.45 0.54 0.61 0.61 0.64 0.51 0.34 0.40 0.33 0.32 0.34 0.25 0.20 0.14 0.09 0.06 0.05 0.04 0.03 0.02 0.02
0.60 0.34 0.31 0.27 0.23 0.32 0.52 0.44 0.19 0.22 0.43 0.53 0.61 0.61 0.50 0.60 0.66 0.65 0.54 0.46 0.28 0.12 0.11 0.15 0.18 0.21 0.29 0.34 0.45 0.54 0.51 0.46 0.50 0.60 0.72 0.80 0.76 0.62 0.53 0.40 0.35 0.32 0.26 0.23 0.16 0.14 0.14 0.10 0.07 0.03 0.01 0.02 0.05 0.06
1.07 0.97 0.65 0.57 0.37 0.41 0.31 0.29 0.13 0.16 0.40 0.46 0.56 0.48 0.43 0.62 0.56 0.47 0.35 0.29 0.23 0.22 0.29 0.30 0.42 0.50 0.55 0.61 0.67 0.73 0.63 0.55 0.43 0.37 0.61 0.81 0.88 0.61 0.58 0.41 0.37 0.29 0.19 0.16 0.15 0.11 0.07 0.06 0.05 0.05 0.08 0.13 0.18 0.15
1.00 1.31 0.99 0.59 0.60 0.37 0.29 0.32 0.28 0.26 0.35 0.42 0.49 0.27 0.44 0.29 0.19 0.16 0.14 0.10 0.11 0.27 0.40 0.57 0.59 0.58 0.63 0.73 0.74 0.62 0.59 0.47 0.49 0.37 0.41 0.54 0.72 0.45 0.45 0.43 0.30 0.22 0.17 0.16 0.12 0.11 0.09 0.11 0.11 0.10 0.11 0.15 0.17 0.20
0.53 0.62 0.71 0.47 0.34 0.20 0.29 0.35 0.25 0.29 0.23 0.39 0.35 0.22 0.27 0.26 0.18 0.15 0.07 0.11 0.32 0.58 0.60 0.58 0.57 0.52 0.48 0.58 0.68 0.62 0.71 0.49 0.45 0.44 0.47 0.39 0.40 0.37 0.38 0.39 0.24 0.21 0.18 0.16 0.13 0.13 0.12 0.11 0.12 0.12 0.11 0.10 0.12 0.15
0.33 0.45 0.57 0.45 0.24 0.09 0.19 0.15 0.17 0.33 0.31 0.33 0.25 0.18 0.23 0.22 0.19 0.07 0.15 0.28 0.48 0.69 0.65 0.50 0.50 0.49 0.47 0.58 0.44 0.49 0.65 0.46 0.46 0.54 0.53 0.48 0.44 0.40 0.31 0.27 0.22 0.16 0.15 0.14 0.13 0.13 0.12 0.13 0.12 0.11 0.11 0.13 0.12 0.10
0.34 0.42 0.46 0.40 0.21 0.13 0.06 0.08 0.10 0.16 0.13 0.13 0.11 0.16 0.19 0.13 0.06 0.05 0.17 0.33 0.51 0.41 0.39 0.48 0.45 0.47 0.43 0.36 0.38 0.47 0.65 0.47 0.39 0.42 0.48 0.34 0.23 0.25 0.18 0.14 0.11 0.12 0.12 0.10 0.07 0.10 0.11 0.12 0.12 0.15 0.18 0.17 0.11 0.11
0.61 0.43 0.29 0.23 0.08 0.04 0.05 0.05 0.05 0.05 0.10 0.09 0.10 0.14 0.12 0.05 0.04 0.07 0.14 0.34 0.29 0.31 0.34 0.38 0.34 0.37 0.37 0.44 0.45 0.43 0.41 0.35 0.26 0.22 0.28 0.19 0.17 0.13 0.08 0.07 0.07 0.06 0.04 0.06 0.12 0.16 0.14 0.15 0.16 0.14 0.09 0.08 0.10 0.11
0.37 0.22 0.16 0.13 0.07 0.05 0.05 0.05 0.05 0.06 0.06 0.10 0.11 0.09 0.06 0.06 0.05 0.12 0.21 0.31 0.27 0.32 0.35 0.36 0.34 0.28 0.30 0.30 0.28 0.26 0.25 0.21 0.14 0.11 0.14 0.08 0.08 0.08 0.07 0.06 0.05 0.06 0.06 0.10 0.18 0.17 0.11 0.06 0.06 0.06 0.07 0.08 0.13 0.17
0.19 0.11 0.05 0.06 0.11 0.12 0.11 0.07 0.07 0.10 0.13 0.16 0.13 0.11 0.14 0.13 0.12 0.22 0.23 0.25 0.25 0.34 0.31 0.28 0.21 0.19 0.20 0.18 0.13 0.10 0.06 0.03 0.03 0.04 0.03 0.03 0.04 0.07 0.16 0.23 0.22 0.19 0.11 0.13 0.16 0.17 0.18 0.16 0.13 0.12 0.14 0.12 0.12 0.21
0.07 0.03 0.05 0.08 0.13 0.15 0.15 0.13 0.16 0.19 0.20 0.21 0.19 0.17 0.20 0.17 0.24 0.31 0.30 0.33 0.26 0.20 0.16 0.14 0.11 0.09 0.08 0.08 0.06 0.05 0.02 0.01 0.02 0.02 0.02 0.07 0.09 0.11 0.11 0.12 0.14 0.11 0.10 0.12 0.14 0.16 0.20 0.22 0.20 0.18 0.18 0.20 0.19 0.19
0.11 0.11 0.11 0.14 0.13 0.14 0.19 0.21 0.23 0.24 0.23 0.24 0.18 0.16 0.17 0.23 0.35 0.31 0.31 0.23 0.18 0.12 0.10 0.10 0.12 0.06 0.04 0.02 0.02 0.05 0.07 0.07 0.07 0.04 0.03 0.05 0.13 0.14 0.10 0.09 0.10 0.10 0.10 0.09 0.09 0.16 0.20 0.22 0.20 0.19 0.24 0.27 0.21 0.24
0.07 0.08 0.08 0.04 0.08 0.13 0.17 0.12 0.15 0.11 0.07 0.07 0.06 0.09 0.09 0.22 0.38 0.31 0.22 0.17 0.12 0.13 0.13 0.12 0.11 0.05 0.05 0.05 0.04 0.05 0.11 0.09 0.11 0.17 0.16 0.13 0.13 0.12 0.09 0.09 0.08 0.09 0.10 0.12 0.10 0.07 0.11 0.14 0.16 0.22 0.25 0.22 0.27 0.32
0.03 0.04 0.03 0.04 0.08 0.11 0.09 0.08 0.10 0.08 0.05 0.03 0.03 0.05 0.12 0.16 0.19 0.14 0.13 0.16 0.10 0.09 0.07 0.05 0.07 0.09 0.08 0.08 0.11 0.12 0.14 0.16 0.14 0.15 0.15 0.14 0.12 0.11 0.10 0.08 0.07 0.08 0.09 0.11 0.10 0.11 0.13 0.16 0.22 0.25 0.24 0.22 0.22 0.21
0.03 0.04 0.04 0.05 0.10 0.09 0.13 0.19 0.15 0.11 0.08 0.05 0.07 0.05 0.10 0.09 0.11 0.18 0.15 0.13 0.10 0.08 0.11 0.11 0.12 0.15 0.18 0.18 0.19 0.19 0.17 0.16 0.14 0.13 0.13 0.13 0.12 0.10 0.08 0.07 0.08 0.09 0.09 0.08 0.09 0.11 0.12 0.13 0.15 0.13 0.14 0.12 0.12 0.12
0.03 0.04 0.05 0.05 0.06 0.07 0.07 0.11 0.06 0.06 0.06 0.07 0.11 0.10 0.11 0.14 0.25 0.29 0.18 0.14 0.20 0.18 0.20 0.21 0.21 0.24 0.25 0.21 0.19 0.17 0.14 0.13 0.11 0.11 0.09 0.08 0.06 0.05 0.05 0.05 0.07 0.08 0.09 0.09 0.09 0.11 0.09 0.08 0.09 0.10 0.11 0.11 0.10 0.09

GFSWCAN_prec_precacc_084.txt.gz
Total_Precipitation_Accumulation
1.15 0.86 0.63 0.70 0.81 0.59 0.48 0.45 0.54 0.53 0.57 0.58 0.47 0.58 0.47 0.48 0.97 1.99 2.09 1.34 1.33 1.12 0.33 0.27 0.13 0.06 0.02 0.03 0.18 0.16 0.14 0.19 0.31 0.38 0.24 0.11 0.04 0.02 0.01 0.05 0.21 0.27 0.38 0.30 0.27 0.21 0.07 0.04 0.10 0.11 0.08 0.03 0.04 0.02
1.26 0.97 0.63 0.58 0.70 0.56 0.47 0.43 0.48 0.47 0.48 0.60 0.50 0.56 0.46 0.38 0.59 1.37 2.42 1.98 1.18 1.50 0.70 0.26 0.23 0.09 0.02 0.01 0.06 0.18 0.07 0.04 0.11 0.17 0.15 0.12 0.09 0.05 0.01 0.01 0.03 0.19 0.22 0.24 0.24 0.16 0.07 0.03 0.06 0.05 0.05 0.05 0.02 0.03
1.18 0.91 0.76 0.66 0.58 0.53 0.44 0.46 0.54 0.45 0.44 0.54 0.53 0.54 0.51 0.46 0.60 0.75 1.77 1.66 2.17 2.08 1.65 0.43 0.30 0.20 0.09 0.02 0.04 0.15 0.07 0.05 0.06 0.08 0.21 0.19 0.20 0.09 0.06 0.02 0.01 0.03 0.06 0.13 0.10 0.03 0.04 0.05 0.04 0.01 0.02 0.06 0.08 0.13
1.09 0.91 0.84 0.84 0.61 0.47 0.35 0.41 0.58 0.50 0.46 0.47 0.56 0.54 0.61 0.68 0.70 0.58 0.99 1.48 2.66 2.61 1.99 0.75 0.19 0.22 0.20 0.09 0.07 0.09 0.07 0.09 0.20 0.23 0.32 0.38 0.27 0.11 0.09 0.04 0.04 0.05 0.07 0.06 0.05 0.02 0.04 0.04 0.04 0.10 0.18 0.26 0.25 0.19
1.00 0.98 0.94 0.79 0.61 0.43 0.40 0.50 0.64 0.59 0.56 0.49 0.65 0.68 0.89 1.09 0.87 0.65 0.70 1.17 2.07 1.72 1.25 0.81 0.48 0.15 0.30 0.26 0.25 0.16 0.11 0.21 0.37 0.48 0.40 0.31 0.08 0.08 0.06 0.06 0.09 0.03 0.01 0.05 0.04 0.06 0.11 0.12 0.24 0.42 0.32 0.21 0.21 0.16
0.94 0.76 0.73 0.70 0.58 0.60 0.61 0.72 0.72 0.67 0.57 0.58 0.79 1.02 1.18 1.17 1.22 1.47 1.94 1.51 1.22 1.28 1.75 1.22 0.63 0.26 0.41 0.50 0.46 0.57 0.24 0.37 0.41 0.47 0.30 0.24 0.16 0.15 0.16 0.08 0.01 0.00 0.00 0.04 0.06 0.05 0.15 0.27 0.26 0.14 0.13 0.10 0.05 0.01
0.73 0.63 0.64 0.67 0.57 0.69 0.80 0.78 0.76 0.63 0.70 0.85 1.05 1.08 0.96 1.52 1.84 2.00 1.49 1.15 0.91 1.20 1.78 1.53 0.83 0.35 0.55 0.62 0.47 0.78 0.60 0.61 0.54 0.59 0.52 0.21 0.14 0.36 0.34 0.13 0.01 0.01 0.02 0.02 0.04 0.09 0.13 0.14 0.12 0.08 0.03 0.01 0.01 0.01
0.77 0.62 0.53 0.59 0.55 0.58 0.77 0.92 0.85 0.88 1.02 0.97 0.99 1.05 1.48 2.49 2.25 1.39 0.78 1.05 1.05 1.24 1.50 1.61 0.98 0.67 0.67 0.84 0.54 0.44 0.59 0.95 0.75 0.66 0.44 0.42 0.32 0.37 0.39 0.06 0.00 0.00 0.01 0.01 0.01 0.04 0.08 0.07 0.02 0.01 0.01 0.01 0.03 0.07
0.51 0.46 0.50 0.52 0.46 0.44 0.48 0.69 0.92 1.09 1.27 1.50 1.69 1.92 2.57 2.95 2.31 1.23 1.19 1.88 1.67 1.84 1.58 0.98 0.82 0.98 1.04 0.84 0.67 0.55 0.54 0.92 0.87 0.62 0.45 0.41 0.47 0.37 0.14 0.09 0.07 0.02 0.01 0.01 0.00 0.01 0.02 0.04 0.04 0.03 0.04 0.08 0.15 0.14
0.55 0.50 0.60 0.64 0.54 0.42 0.44 0.62 1.05 1.51 2.14 2.54 2.63 2.87 3.65 2.68 1.66 1.53 2.06 2.47 2.14 1.62 1.12 0.62 0.52 0.87 1.21 0.97 0.84 0.84 0.94 0.78 0.61 0.38 0.44 0.42 0.32 0.27 0.19 0.19 0.13 0.06 0.03 0.02 0.02 0.02 0.02 0.03 0.05 0.08 0.13 0.14 0.09 0.04
0.64 0.63 0.58 0.60 0.67 0.71 0.77 0.83 1.06 1.60 2.36 2.80 2.98 3.03 2.72 2.11 1.91 1.79 2.02 1.78 1.31 0.68 0.40 0.38 0.43 0.68 0.89 0.90 0.86 0.88 0.94 0.80 0.64 0.36 0.34 0.34 0.17 0.11 0.15 0.16 0.14 0.17 0.14 0.09 0.06 0.06 0.08 0.15 0.25 0.19 0.09 0.05 0.04 0.06
0.65 0.56 0.48 0.45 0.45 0.47 0.43 0.55 0.79 0.97 1.57 2.07 1.93 1.84 2.16 2.35 1.93 1.61 1.36 0.98 0.44 0.18 0.12 0.17 0.51 0.78 0.81 0.89 0.95 1.19 0.81 0.62 0.45 0.27 0.42 0.32 0.24 0.16 0.09 0.14 0.14 0.10 0.09 0.10 0.15 0.22 0.25 0.22 0.17 0.18 0.21 0.24 0.32 0.38
0.59 0.39 0.27 0.26 0.28 0.44 0.53 0.55 0.58 0.90 1.24 1.31 1.42 2.08 2.33 2.20 1.75 1.23 0.60 0.33 0.17 0.10 0.08 0.15 0.47 0.78 0.84 0.93 0.97 1.19 0.97 0.76 0.41 0.47 0.41 0.26 0.15 0.23 0.19 0.17 0.19 0.10 0.14 0.22 0.16 0.11 0.12 0.15 0.20 0.24 0.32 0.39 0.36 0.36
0.49 0.40 0.35 0.38 0.37 0.44 0.54 0.63 0.84 0.94 0.84 1.01 1.48 1.76 1.53 1.27 0.91 0.61 0.27 0.13 0.10 0.07 0.09 0.11 0.20 0.32 0.66 0.84 0.80 1.01 0.94 0.75 0.75 0.50 0.36 0.41 0.50 0.37 0.21 0.16 0.24 0.30 0.26 0.32 0.46 0.34 0.29 0.27 0.32 0.36 0.34 0.33 0.23 0.27
0.44 0.42 0.42 0.59 0.57 0.47 0.49 0.59 0.72 0.58 0.51 0.77 0.78 0.85 0.75 0.69 0.50 0.33 0.23 0.16 0.17 0.16 0.28 0.40 0.49 0.39 0.56 0.99 0.79 0.86 0.83 0.73 0.53 0.43 0.47 0.46 0.37 0.28 0.35 0.38 0.36 0.47 0.54 0.55 0.69 0.79 0.73 0.55 0.35 0.45 0.47 0.36 0.22 0.24
0.37 0.38 0.58 0.58 0.40 0.33 0.48 0.48 0.60 0.46 0.44 0.34 0.47 0.45 0.44 0.39 0.40 0.36 0.32 0.36 0.35 0.37 0.47 0.66 0.61 0.64 0.79 0.66 0.54 0.59 0.52 0.48 0.54 0.40 0.31 0.28 0.33 0.38 0.47 0.54 0.57 0.59 0.56 0.61 0.66 0.65 0.74 0.73 0.57 0.44 0.40 0.34 0.32 0.23
0.42 0.35 0.39 0.37 0.40 0.41 0.34 0.48 0.41 0.36 0.43 0.33 0.47 0.41 0.39 0.35 0.38 0.37 0.37 0.44 0.39 0.42 0.48 0.51 0.43 0.42 0.41 0.31 0.32 0.37 0.52 0.48 0.41 0.42 0.41 0.44 0.49 0.55 0.56 0.50 0.48 0.48 0.52 0.53 0.55 0.50 0.46 0.41 0.31 0.20 0.26 0.30 0.21 0.17
0.56 0.26 0.27 0.30 0.27 0.30 0.36 0.37 0.32 0.32 0.37 0.46 0.46 0.71 0.46 0.45 0.42 0.39 0.43 0.52 0.46 0.24 0.18 0.23 0.18 0.14 0.22 0.26 0.41 0.56 0.49 0.52 0.49 0.56 0.65 0.73 0.70 0.73 0.61 0.43 0.50 0.43 0.43 0.47 0.39 0.37 0.31 0.24 0.18 0.18 0.16 0.16 0.12 0.12
0.60 0.34 0.31 0.27 0.23 0.32 0.52 0.44 0.19 0.22 0.44 0.55 0.63 0.63 0.51 0.61 0.70 0.71 0.65 0.62 0.37 0.18 0.16 0.19 0.20 0.23 0.32 0.40 0.51 0.62 0.59 0.54 0.59 0.71 0.83 0.93 0.87 0.71 0.64 0.52 0.47 0.45 0.39 0.37 0.27 0.25 0.28 0.24 0.19 0.15 0.12 0.11 0.12 0.13
1.07 0.97 0.65 0.57 0.37 0.41 0.31 0.29 0.13 0.16 0.41 0.47 0.57 0.48 0.43 0.63 0.57 0.47 0.37 0.33 0.27 0.23 0.30 0.31 0.45 0.54 0.60 0.66 0.73 0.80 0.69 0.62 0.48 0.42 0.68 0.91 1.03 0.76 0.73 0.54 0.51 0.44 0.31 0.30 0.29 0.24 0.18 0.16 0.16 0.14 0.14 0.17 0.19 0.16
1.00 1.31 0.99 0.59 0.60 0.37 0.30 0.32 0.28 0.27 0.36 0.43 0.51 0.28 0.44 0.29 0.19 0.16 0.14 0.10 0.12 0.29 0.42 0.61 0.64 0.64 0.71 0.81 0.80 0.65 0.63 0.50 0.54 0.40 0.45 0.61 0.82 0.57 0.59 0.60 0.47 0.40 0.32 0.31 0.23 0.24 0.19 0.18 0.18 0.13 0.12 0.15 0.18 0.20
0.53 0.62 0.71 0.47 0.34 0.20 0.32 0.37 0.26 0.30 0.24 0.41 0.36 0.22 0.27 0.26 0.18 0.15 0.07 0.11 0.34 0.62 0.65 0.63 0.62 0.58 0.54 0.64 0.74 0.67 0.77 0.53 0.52 0.53 0.57 0.49 0.50 0.50 0.52 0.54 0.38 0.34 0.31 0.29 0.24 0.22 0.18 0.14 0.13 0.12 0.11 0.10 0.12 0.15
0.33 0.45 0.57 0.45 0.24 0.09 0.23 0.19 0.19 0.39 0.34 0.36 0.27 0.19 0.24 0.22 0.20 0.07 0.16 0.29 0.53 0.76 0.70 0.55 0.55 0.54 0.52 0.64 0.49 0.54 0.73 0.53 0.54 0.65 0.66 0.61 0.57 0.54 0.44 0.40 0.35 0.28 0.24 0.22 0.18 0.15 0.13 0.13 0.12 0.11 0.11 0.13 0.12 0.10
0.34 0.42 0.46 0.40 0.21 0.13 0.06 0.08 0.10 0.16 0.13 0.14 0.13 0.19 0.21 0.14 0.06 0.05 0.19 0.37 0.58 0.46 0.42 0.52 0.49 0.51 0.47 0.39 0.42 0.52 0.72 0.54 0.46 0.49 0.58 0.44 0.33 0.37 0.29 0.24 0.18 0.16 0.15 0.11 0.08 0.10 0.11 0.12 0.12 0.15 0.18 0.17 0.11 0.11
0.61 0.43 0.29 0.23 0.08 0.04 0.05 0.05 0.05 0.05 0.10 0.09 0.11 0.15 0.12 0.05 0.04 0.07 0.15 0.35 0.31 0.32 0.36 0.40 0.36 0.38 0.39 0.47 0.50 0.49 0.49 0.42 0.33 0.28 0.39 0.30 0.28 0.22 0.16 0.11 0.08 0.07 0.04 0.06 0.12 0.16 0.14 0.15 0.16 0.14 0.09 0.08 0.10 0.11
0.37 0.23 0.16 0.13 0.07 0.05 0.05 0.05 0.06 0.06 0.06 0.10 0.12 0.10 0.06 0.06 0.05 0.13 0.22 0.33 0.29 0.33 0.37 0.37 0.35 0.29 0.31 0.33 0.31 0.29 0.30 0.28 0.21 0.18 0.23 0.17 0.14 0.12 0.10 0.07 0.06 0.06 0.06 0.10 0.18 0.17 0.11 0.06 0.06 0.06 0.07 0.08 0.13 0.17
0.19 0.11 0.05 0.06 0.11 0.12 0.11 0.07 0.07 0.10 0.13 0.17 0.13 0.11 0.14 0.13 0.12 0.23 0.24 0.26 0.27 0.37 0.33 0.29 0.22 0.21 0.22 0.21 0.16 0.14 0.10 0.08 0.07 0.08 0.08 0.07 0.07 0.08 0.16 0.23 0.22 0.19 0.11 0.13 0.16 0.17 0.18 0.16 0.13 0.12 0.14 0.12 0.12 0.21
0.07 0.03 0.05 0.08 0.13 0.15 0.15 0.13 0.16 0.20 0.21 0.21 0.19 0.17 0.21 0.17 0.25 0.33 0.31 0.35 0.27 0.22 0.17 0.15 0.12 0.10 0.10 0.10 0.08 0.06 0.03 0.02 0.02 0.02 0.02 0.07 0.09 0.11 0.11 0.12 0.14 0.11 0.10 0.12 0.14 0.16 0.20 0.22 0.20 0.18 0.18 0.20 0.19 0.19
0.11 0.11 0.11 0.14 0.13 0.14 0.20 0.21 0.23 0.24 0.24 0.24 0.18 0.17 0.18 0.25 0.38 0.32 0.32 0.24 0.19 0.12 0.10 0.11 0.14 0.08 0.06 0.04 0.03 0.05 0.07 0.07 0.07 0.04 0.03 0.05 0.13 0.14 0.10 0.09 0.10 0.10 0.10 0.09 0.09 0.16 0.20 0.22 0.20 0.19 0.24 0.27 0.21 0.24
0.07 0.08 0.08 0.04 0.08 0.13 0.18 0.13 0.15 0.12 0.07 0.07 0.06 0.09 0.10 0.24 0.42 0.33 0.23 0.18 0.13 0.14 0.14 0.12 0.12 0.06 0.05 0.05 0.04 0.05 0.11 0.09 0.11 0.17 0.16 0.13 0.13 0.12 0.09 0.09 0.08 0.09 0.10 0.12 0.10 0.07 0.11 0.14 0.16 0.22 0.25 0.22 0.27 0.32
0.03 0.04 0.03 0.04 0.09 0.12 0.09 0.08 0.10 0.08 0.05 0.03 0.03 0.05 0.13 0.19 0.21 0.16 0.14 0.17 0.12 0.10 0.07 0.06 0.07 0.09 0.08 0.08 0.11 0.12 0.14 0.16 0.14 0.15 0.15 0.14 0.13 0.12 0.10 0.08 0.07 0.08 0.09 0.11 0.10 0.11 0.13 0.16 0.22 0.25 0.24 0.22 0.22 0.21
0.03 0.04 0.04 0.05 0.11 0.10 0.14 0.20 0.15 0.11 0.08 0.05 0.07 0.05 0.10 0.09 0.12 0.18 0.16 0.15 0.11 0.08 0.11 0.12 0.12 0.15 0.18 0.18 0.19 0.19 0.17 0.16 0.14 0.13 0.13 0.13 0.12 0.10 0.08 0.07 0.08 0.09 0.09 0.08 0.09 0.11 0.12 0.13 0.15 0.13 0.14 0.12 0.12 0.12
0.03 0.04 0.05 0.05 0.07 0.08 0.07 0.12 0.07 0.06 0.07 0.07 0.11 0.11 0.11 0.14 0.26 0.29 0.18 0.16 0.21 0.19 0.20 0.21 0.21 0.24 0.25 0.21 0.19 0.17 0.14 0.13 0.11 0.11 0.09 0.08 0.06 0.05 0.05 0.05 0.07 0.08 0.09 0.09 0.09 0.11 0.09 0.08 0.09 0.10 0.11 0.11 0.10 0.09

GFSWCAN_prec_precacc_087.txt.gz
Total_Precipitation_Accumulation
1.17 0.88 0.65 0.72 0.84 0.61 0.50 0.47 0.57 0.56 0.60 0.60 0.49 0.61 0.54 0.60 1.05 2.08 2.18 1.43 1.40 1.21 0.37 0.27 0.13 0.06 0.03 0.06 0.23 0.19 0.22 0.26 0.39 0.47 0.26 0.12 0.04 0.02 0.01 0.05 0.21 0.28 0.43 0.38 0.39 0.30 0.10 0.06 0.13 0.25 0.21 0.10 0.05 0.02
1.27 0.98 0.65 0.60 0.72 0.58 0.48 0.45 0.50 0.49 0.49 0.60 0.51 0.57 0.48 0.43 0.70 1.58 2.64 2.11 1.26 1.65 0.83 0.29 0.23 0.09 0.02 0.01 0.09 0.25 0.12 0.06 0.12 0.18 0.15 0.12 0.09 0.05 0.01 0.01 0.03 0.19 0.22 0.24 0.26 0.21 0.09 0.03 0.06 0.13 0.11 0.11 0.05 0.05
1.19 0.92 0.78 0.68 0.60 0.55 0.45 0.46 0.55 0.46 0.45 0.54 0.54 0.55 0.52 0.48 0.64 0.93 2.15 1.79 2.31 2.31 1.81 0.45 0.32 0.20 0.09 0.02 0.05 0.15 0.08 0.07 0.11 0.09 0.23 0.21 0.20 0.09 0.06 0.02 0.01 0.03 0.06 0.13 0.10 0.03 0.04 0.05 0.04 0.01 0.02 0.06 0.08 0.13
1.10 0.92 0.86 0.85 0.62 0.47 0.36 0.41 0.58 0.50 0.47 0.47 0.56 0.54 0.61 0.70 0.74 0.64 1.21 1.77 2.76 2.80 2.09 0.78 0.19 0.22 0.20 0.09 0.07 0.09 0.07 0.10 0.22 0.31 0.37 0.43 0.31 0.11 0.09 0.04 0.04 0.05 0.07 0.06 0.05 0.02 0.04 0.04 0.04 0.10 0.18 0.26 0.25 0.19
1.02 1.00 0.97 0.82 0.64 0.48 0.45 0.53 0.66 0.60 0.57 0.51 0.66 0.69 0.89 1.11 0.92 0.72 0.75 1.35 2.27 1.77 1.31 0.83 0.48 0.15 0.30 0.26 0.25 0.16 0.12 0.22 0.40 0.53 0.47 0.35 0.10 0.10 0.07 0.06 0.09 0.03 0.01 0.05 0.04 0.06 0.11 0.12 0.24 0.42 0.32 0.21 0.21 0.16
0.98 0.78 0.75 0.72 0.61 0.63 0.63 0.73 0.75 0.70 0.60 0.61 0.82 1.04 1.20 1.21 1.31 1.65 2.11 1.58 1.43 1.42 1.82 1.27 0.65 0.26 0.41 0.50 0.46 0.57 0.24 0.38 0.45 0.52 0.36 0.28 0.17 0.16 0.17 0.08 0.01 0.00 0.00 0.04 0.06 0.05 0.15 0.27 0.26 0.14 0.13 0.10 0.05 0.01
0.74 0.64 0.68 0.70 0.59 0.70 0.81 0.81 0.78 0.65 0.73 0.88 1.10 1.12 0.99 1.58 2.00 2.30 1.58 1.17 0.94 1.36 1.99 1.57 0.84 0.35 0.55 0.62 0.47 0.78 0.62 0.65 0.61 0.70 0.57 0.23 0.14 0.38 0.35 0.13 0.01 0.01 0.02 0.02 0.04 0.09 0.13 0.14 0.12 0.08 0.03 0.01 0.01 0.02
0.78 0.64 0.55 0.60 0.55 0.58 0.78 0.93 0.86 0.90 1.04 1.00 1.04 1.10 1.52 2.56 2.48 1.62 0.80 1.05 1.05 1.30 1.60 1.68 1.00 0.68 0.67 0.85 0.55 0.45 0.61 1.00 0.88 0.76 0.48 0.42 0.32 0.38 0.41 0.06 0.00 0.00 0.01 0.01 0.01 0.04 0.08 0.07 0.02 0.01 0.01 0.02 0.05 0.08
0.52 0.48 0.54 0.54 0.47 0.45 0.49 0.70 0.94 1.13 1.31 1.53 1.73 2.02 2.73 3.29 2.71 1.40 1.21 1.88 1.68 1.85 1.61 1.01 0.82 1.01 1.05 0.85 0.69 0.59 0.62 1.06 0.94 0.68 0.50 0.43 0.48 0.37 0.14 0.09 0.07 0.02 0.01 0.01 0.00 0.01 0.02 0.04 0.04 0.03 0.04 0.08 0.16 0.15
0.57 0.54 0.66 0.69 0.57 0.46 0.47 0.67 1.12 1.58 2.22 2.61 2.87 3.38 4.13 2.95 1.75 1.62 2.26 2.60 2.19 1.64 1.12 0.63 0.53 0.94 1.25 0.98 0.85 0.93 1.00 0.85 0.68 0.39 0.44 0.43 0.33 0.27 0.19 0.19 0.13 0.06 0.03 0.02 0.02 0.02 0.02 0.03 0.05 0.08 0.13 0.14 0.09 0.05
0.67 0.72 0.72 0.70 0.70 0.75 0.85 0.98 1.26 1.90 2.63 3.05 3.30 3.25 2.88 2.19 1.96 1.98 2.21 1.84 1.34 0.69 0.41 0.38 0.44 0.73 0.96 0.92 0.87 0.94 1.03 0.83 0.66 0.36 0.35 0.35 0.17 0.11 0.15 0.16 0.14 0.17 0.14 0.09 0.06 0.06 0.08 0.15 0.25 0.19 0.09 0.05 0.04 0.06
0.65 0.59 0.54 0.52 0.52 0.52 0.48 0.60 0.85 1.03 1.63 2.13 2.05 1.97 2.31 2.50 2.11 1.78 1.39 1.04 0.48 0.18 0.12 0.17 0.51 0.81 0.85 0.93 0.97 1.30 0.91 0.66 0.45 0.27 0.43 0.32 0.24 0.16 0.09 0.14 0.14 0.10 0.09 0.10 0.15 0.22 0.25 0.22 0.17 0.18 0.21 0.24 0.32 0.38
0.60 0.40 0.28 0.28 0.30 0.46 0.55 0.57 0.58 0.90 1.24 1.31 1.43 2.16 2.44 2.30 1.81 1.27 0.61 0.36 0.23 0.14 0.08 0.15 0.47 0.78 0.84 0.94 1.02 1.25 1.04 0.78 0.42 0.48 0.42 0.27 0.15 0.23 0.19 0.17 0.19 0.10 0.14 0.22 0.16 0.11 0.12 0.15 0.20 0.24 0.32 0.40 0.36 0.37
0.49 0.40 0.36 0.40 0.38 0.45 0.55 0.65 0.86 0.95 0.84 1.01 1.49 1.78 1.55 1.28 0.92 0.62 0.28 0.13 0.11 0.09 0.09 0.11 0.20 0.32 0.67 0.86 0.86 1.09 0.98 0.77 0.77 0.52 0.37 0.42 0.50 0.38 0.21 0.17 0.25 0.31 0.27 0.33 0.47 0.35 0.31 0.28 0.33 0.38 0.36 0.34 0.24 0.29
0.44 0.42 0.42 0.60 0.58 0.48 0.53 0.62 0.74 0.59 0.51 0.77 0.78 0.85 0.76 0.71 0.52 0.34 0.24 0.18 0.18 0.18 0.29 0.40 0.49 0.39 0.56 1.01 0.80 0.86 0.84 0.75 0.54 0.44 0.48 0.47 0.37 0.28 0.35 0.39 0.37 0.49 0.56 0.57 0.72 0.82 0.75 0.59 0.42 0.54 0.54 0.42 0.26 0.27
0.37 0.38 0.58 0.58 0.40 0.33 0.48 0.48 0.60 0.46 0.44 0.34 0.47 0.46 0.46 0.41 0.43 0.39 0.36 0.38 0.38 0.41 0.51 0.67 0.62 0.64 0.80 0.66 0.55 0.60 0.53 0.49 0.55 0.41 0.32 0.29 0.33 0.39 0.49 0.56 0.59 0.62 0.59 0.63 0.70 0.70 0.81 0.84 0.76 0.71 0.70 0.58 0.50 0.36
0.42 0.35 0.39 0.37 0.40 0.41 0.34 0.48 0.41 0.36 0.43 0.33 0.48 0.42 0.41 0.37 0.40 0.40 0.41 0.47 0.43 0.45 0.49 0.51 0.43 0.42 0.42 0.31 0.33 0.37 0.53 0.50 0.42 0.43 0.42 0.45 0.51 0.59 0.61 0.56 0.52 0.52 0.57 0.59 0.62 0.57 0.54 0.55 0.49 0.44 0.55 0.61 0.43 0.32
0.56 0.26 0.27 0.30 0.27 0.30 0.36 0.37 0.32 0.32 0.38 0.48 0.47 0.74 0.48 0.47 0.44 0.41 0.47 0.55 0.47 0.24 0.18 0.23 0.18 0.14 0.23 0.27 0.42 0.59 0.51 0.54 0.51 0.58 0.68 0.76 0.73 0.77 0.66 0.48 0.55 0.48 0.48 0.53 0.44 0.44 0.39 0.34 0.29 0.32 0.29 0.29 0.21 0.21
0.60 0.34 0.31 0.27 0.23 0.32 0.52 0.44 0.19 0.22 0.45 0.56 0.64 0.64 0.52 0.64 0.74 0.74 0.69 0.65 0.39 0.19 0.18 0.22 0.23 0.26 0.36 0.44 0.56 0.67 0.64 0.57 0.62 0.74 0.88 0.98 0.92 0.75 0.69 0.57 0.51 0.50 0.44 0.43 0.33 0.31 0.36 0.32 0.26 0.22 0.19 0.19 0.17 0.19
1.07 0.97 0.65 0.57 0.37 0.41 0.31 0.29 0.13 0.16 0.41 0.47 0.57 0.48 0.43 0.66 0.61 0.50 0.41 0.36 0.30 0.25 0.32 0.34 0.48 0.58 0.65 0.71 0.78 0.84 0.74 0.65 0.52 0.46 0.71 0.95 1.08 0.80 0.78 0.58 0.56 0.49 0.37 0.36 0.35 0.30 0.23 0.22 0.22 0.19 0.20 0.23 0.23 0.19
1.00 1.31 0.99 0.59 0.60 0.37 0.30 0.32 0.28 0.27 0.36 0.44 0.51 0.28 0.44 0.29 0.20 0.17 0.17 0.11 0.13 0.32 0.47 0.64 0.67 0.69 0.77 0.87 0.85 0.68 0.66 0.52 0.56 0.43 0.49 0.65 0.87 0.61 0.63 0.64 0.50 0.45 0.36 0.36 0.28 0.30 0.25 0.23 0.24 0.18 0.15 0.17 0.18 0.21
0.53 0.62 0.71 0.47 0.34 0.20 0.32 0.38 0.26 0.30 0.24 0.41 0.37 0.22 0.27 0.26 0.18 0.15 0.07 0.12 0.36 0.67 0.69 0.67 0.66 0.61 0.57 0.66 0.76 0.70 0.79 0.55 0.53 0.55 0.60 0.53 0.54 0.54 0.57 0.60 0.44 0.39 0.35 0.35 0.29 0.26 0.23 0.17 0.15 0.13 0.11 0.10 0.12 0.15
0.33 0.45 0.57 0.45 0.24 0.09 0.24 0.20 0.19 0.40 0.35 0.37 0.27 0.19 0.24 0.22 0.20 0.07 0.16 0.30 0.55 0.79 0.73 0.57 0.57 0.56 0.54 0.66 0.50 0.55 0.74 0.54 0.56 0.68 0.70 0.66 0.63 0.60 0.49 0.46 0.42 0.33 0.27 0.27 0.23 0.17 0.14 0.13 0.12 0.11 0.11 0.13 0.12 0.10
0.34 0.42 0.46 0.40 0.21 0.13 0.06 0.08 0.10 0.16 0.13 0.14 0.13 0.19 0.21 0.14 0.06 0.05 0.19 0.38 0.60 0.48 0.43 0.54 0.51 0.52 0.48 0.40 0.43 0.54 0.75 0.56 0.48 0.52 0.62 0.47 0.36 0.42 0.33 0.28 0.22 0.20 0.17 0.13 0.09 0.10 0.11 0.12 0.12 0.15 0.18 0.17 0.11 0.11
0.61 0.43 0.29 0.23 0.08 0.04 0.05 0.05 0.05 0.05 0.10 0.09 0.11 0.15 0.12 0.05 0.04 0.07 0.15 0.36 0.31 0.32 0.37 0.41 0.36 0.39 0.40 0.48 0.52 0.51 0.50 0.44 0.35 0.30 0.42 0.34 0.32 0.27 0.20 0.15 0.11 0.08 0.04 0.06 0.12 0.16 0.14 0.15 0.16 0.14 0.09 0.08 0.10 0.11
0.37 0.23 0.16 0.13 0.07 0.05 0.05 0.05 0.06 0.06 0.06 0.10 0.12 0.10 0.06 0.06 0.05 0.13 0.23 0.33 0.29 0.34 0.37 0.38 0.36 0.29 0.32 0.33 0.32 0.30 0.31 0.30 0.23 0.19 0.27 0.21 0.19 0.17 0.15 0.11 0.08 0.07 0.06 0.10 0.18 0.17 0.11 0.06 0.06 0.06 0.07 0.08 0.13 0.17
0.19 0.11 0.05 0.06 0.11 0.12 0.11 0.07 0.07 0.10 0.13 0.17 0.13 0.11 0.14 0.13 0.12 0.23 0.25 0.26 0.27 0.38 0.34 0.30 0.23 0.21 0.23 0.22 0.17 0.16 0.12 0.09 0.08 0.10 0.11 0.10 0.09 0.10 0.18 0.24 0.23 0.20 0.11 0.13 0.16 0.17 0.18 0.16 0.13 0.12 0.14 0.12 0.12 0.21
0.07 0.03 0.05 0.08 0.13 0.15 0.15 0.13 0.16 0.20 0.21 0.22 0.19 0.17 0.21 0.17 0.25 0.33 0.32 0.36 0.28 0.22 0.17 0.16 0.13 0.11 0.11 0.11 0.09 0.06 0.04 0.02 0.03 0.02 0.03 0.07 0.09 0.11 0.11 0.12 0.14 0.11 0.10 0.12 0.14 0.16 0.20 0.22 0.20 0.18 0.18 0.20 0.19 0.19
0.11 0.11 0.11 0.14 0.13 0.14 0.20 0.21 0.24 0.24 0.24 0.24 0.18 0.17 0.19 0.26 0.39 0.33 0.33 0.25 0.20 0.13 0.11 0.12 0.14 0.08 0.06 0.04 0.03 0.05 0.07 0.07 0.07 0.04 0.03 0.05 0.13 0.14 0.10 0.09 0.10 0.10 0.10 0.09 0.09 0.16 0.20 0.22 0.20 0.19 0.24 0.27 0.21 0.24
0.07 0.08 0.08 0.04 0.08 0.14 0.18 0.13 0.15 0.12 0.07 0.07 0.06 0.09 0.10 0.25 0.44 0.34 0.24 0.18 0.13 0.14 0.15 0.13 0.12 0.06 0.05 0.05 0.04 0.05 0.11 0.09 0.11 0.17 0.16 0.13 0.13 0.12 0.09 0.09 0.08 0.09 0.10 0.12 0.10 0.07 0.11 0.14 0.16 0.22 0.25 0.22 0.27 0.32
0.03 0.04 0.03 0.04 0.09 0.13 0.09 0.08 0.10 0.08 0.05 0.03 0.03 0.05 0.13 0.19 0.22 0.17 0.15 0.18 0.12 0.10 0.08 0.06 0.07 0.09 0.08 0.08 0.11 0.12 0.14 0.16 0.14 0.15 0.15 0.14 0.13 0.12 0.10 0.08 0.07 0.08 0.09 0.11 0.10 0.11 0.13 0.16 0.22 0.25 0.24 0.22 0.22 0.21
0.03 0.04 0.04 0.05 0.11 0.10 0.15 0.20 0.15 0.11 0.08 0.05 0.07 0.05 0.10 0.09 0.12 0.19 0.16 0.15 0.12 0.09 0.11 0.12 0.12 0.15 0.18 0.18 0.19 0.19 0.17 0.16 0.14 0.13 0.13 0.13 0.12 0.10 0.08 0.07 0.08 0.09 0.09 0.08 0.09 0.11 0.12 0.13 0.16 0.14 0.14 0.12 0.12 0.12
0.03 0.04 0.05 0.05 0.07 0.08 0.07 0.13 0.07 0.06 0.07 0.07 0.12 0.11 0.12 0.14 0.26 0.30 0.19 0.17 0.22 0.19 0.20 0.21 0.21 0.24 0.25 0.21 0.19 0.17 0.14 0.13 0.11 0.11 0.09 0.08 0.06 0.05 0.05 0.05 0.07 0.08 0.09 0.09 0.09 0.11 0.09 0.08 0.09 0.10 0.11 0.11 0.10 0.09

GFSWCAN_prec_precacc_093.txt.gz
Total_Precipitation_Accumulation
1.20 0.90 0.68 0.75 0.87 0.64 0.53 0.51 0.61 0.61 0.65 0.67 0.60 0.78 0.75 0.78 1.19 2.26 2.30 1.49 1.46 1.25 0.38 0.28 0.15 0.08 0.04 0.09 0.28 0.32 0.43 0.38 0.49 0.61 0.35 0.17 0.07 0.03 0.01 0.07 0.23 0.30 0.45 0.41 0.42 0.36 0.11 0.07 0.15 0.31 0.25 0.10 0.06 0.03
1.29 1.00 0.66 0.62 0.74 0.60 0.52 0.48 0.54 0.52 0.53 0.64 0.56 0.65 0.63 0.66 0.96 1.82 2.93 2.18 1.32 1.74 0.87 0.31 0.24 0.09 0.04 0.03 0.16 0.39 0.27 0.19 0.19 0.25 0.20 0.17 0.12 0.06 0.01 0.01 0.03 0.21 0.22 0.26 0.27 0.22 0.10 0.04 0.07 0.13 0.11 0.11 0.05 0.06
1.20 0.94 0.79 0.70 0.62 0.57 0.47 0.48 0.57 0.49 0.48 0.59 0.59 0.59 0.59 0.57 0.85 1.30 2.52 1.95 2.38 2.52 2.02 0.51 0.33 0.20 0.10 0.03 0.09 0.29 0.14 0.15 0.23 0.18 0.33 0.30 0.25 0.11 0.07 0.02 0.01 0.03 0.06 0.13 0.11 0.03 0.04 0.05 0.04 0.01 0.02 0.06 0.08 0.14
1.12 0.94 0.88 0.87 0.64 0.49 0.38 0.43 0.59 0.52 0.49 0.51 0.61 0.58 0.65 0.74 0.82 0.96 1.68 2.07 2.88 2.99 2.25 0.83 0.19 0.23 0.20 0.09 0.10 0.13 0.11 0.18 0.33 0.47 0.60 0.55 0.35 0.14 0.11 0.05 0.05 0.05 0.07 0.06 0.05 0.02 0.04 0.04 0.04 0.10 0.18 0.26 0.25 0.19
1.07 1.06 1.02 0.86 0.68 0.51 0.47 0.56 0.68 0.62 0.59 0.53 0.70 0.74 0.93 1.14 0.97 0.94 1.13 1.55 2.40 1.88 1.43 0.90 0.50 0.15 0.30 0.27 0.26 0.18 0.22 0.33 0.57 0.77 0.63 0.45 0.14 0.16 0.12 0.11 0.09 0.03 0.01 0.05 0.04 0.06 0.11 0.12 0.24 0.42 0.32 0.21 0.21 0.16
1.08 0.85 0.79 0.76 0.64 0.65 0.66 0.76 0.77 0.73 0.62 0.62 0.83 1.09 1.24 1.26 1.41 2.02 2.63 1.95 1.63 1.55 2.02 1.41 0.75 0.29 0.42 0.51 0.47 0.62 0.30 0.48 0.61 0.74 0.52 0.35 0.22 0.25 0.25 0.11 0.01 0.00 0.00 0.04 0.06 0.05 0.15 0.27 0.26 0.14 0.13 0.10 0.05 0.02
0.81 0.69 0.71 0.72 0.60 0.71 0.83 0.82 0.79 0.66 0.75 0.91 1.12 1.15 1.05 1.66 2.15 2.61 1.79 1.26 1.06 1.53 2.25 1.66 0.87 0.41 0.58 0.66 0.51 0.86 0.76 0.90 0.80 0.86 0.66 0.28 0.19 0.48 0.44 0.16 0.01 0.01 0.02 0.02 0.04 0.09 0.13 0.14 0.12 0.08 0.03 0.01 0.01 0.03
0.80 0.68 0.59 0.61 0.55 0.58 0.79 0.95 0.89 0.92 1.06 1.04 1.06 1.16 1.63 2.72 2.71 1.81 0.85 1.06 1.06 1.42 1.84 1.80 1.05 0.85 0.74 0.94 0.62 0.53 0.78 1.20 1.12 0.97 0.58 0.46 0.35 0.44 0.47 0.07 0.00 0.00 0.01 0.01 0.01 0.04 0.08 0.07 0.02 0.01 0.01 0.02 0.05 0.09
0.58 0.54 0.58 0.56 0.47 0.45 0.49 0.70 0.96 1.17 1.35 1.58 1.81 2.25 3.28 4.02 3.20 1.54 1.27 1.90 1.71 1.95 1.76 1.07 0.86 1.09 1.09 0.92 0.77 0.67 0.73 1.26 1.05 0.76 0.57 0.49 0.53 0.42 0.16 0.09 0.08 0.02 0.01 0.01 0.00 0.01 0.02 0.04 0.04 0.03 0.04 0.08 0.16 0.15
0.69 0.61 0.70 0.72 0.59 0.47 0.48 0.68 1.16 1.64 2.31 2.85 3.45 4.43 4.83 3.29 1.82 1.85 2.74 2.89 2.36 1.73 1.18 0.65 0.57 0.97 1.29 1.02 0.93 1.01 1.07 0.95 0.80 0.44 0.46 0.48 0.36 0.28 0.19 0.19 0.13 0.06 0.03 0.02 0.02 0.02 0.02 0.03 0.05 0.08 0.13 0.14 0.09 0.05
0.76 0.78 0.77 0.73 0.72 0.77 0.87 1.01 1.40 2.16 3.16 3.69 4.01 3.58 2.98 2.30 2.06 2.22 2.52 2.04 1.44 0.73 0.42 0.39 0.46 0.74 0.98 0.99 0.92 1.01 1.19 0.88 0.70 0.41 0.39 0.40 0.18 0.12 0.15 0.16 0.14 0.17 0.14 0.09 0.06 0.06 0.08 0.15 0.25 0.19 0.09 0.05 0.04 0.06
0.72 0.63 0.58 0.57 0.57 0.60 0.62 0.92 1.27 1.31 1.89 2.34 2.27 2.15 2.51 2.74 2.38 2.03 1.51 1.08 0.48 0.19 0.12 0.17 0.52 0.84 0.90 1.00 1.03 1.35 1.00 0.80 0.50 0.30 0.47 0.35 0.27 0.16 0.09 0.14 0.14 0.10 0.09 0.10 0.15 0.22 0.25 0.22 0.17 0.18 0.21 0.25 0.32 0.38
0.64 0.44 0.32 0.35 0.45 0.65 0.79 0.75 0.62 0.92 1.26 1.33 1.45 2.25 2.60 2.53 1.94 1.37 0.64 0.37 0.25 0.16 0.09 0.16 0.49 0.80 0.99 1.09 1.08 1.31 1.13 0.89 0.47 0.53 0.46 0.30 0.16 0.23 0.19 0.17 0.19 0.10 0.14 0.22 0.16 0.12 0.12 0.16 0.21 0.25 0.33 0.41 0.37 0.38
0.56 0.49 0.45 0.47 0.46 0.53 0.62 0.69 0.89 1.00 0.86 1.02 1.50 1.81 1.64 1.30 0.93 0.63 0.30 0.15 0.11 0.10 0.10 0.13 0.21 0.35 0.72 1.00 1.00 1.20 1.08 0.81 0.82 0.57 0.41 0.44 0.51 0.38 0.21 0.17 0.25 0.31 0.27 0.34 0.48 0.36 0.32 0.29 0.34 0.40 0.39 0.37 0.27 0.33
0.45 0.46 0.45 0.62 0.59 0.51 0.55 0.64 0.78 0.60 0.51 0.77 0.78 0.85 0.77 0.72 0.53 0.36 0.25 0.19 0.19 0.21 0.31 0.44 0.54 0.43 0.59 1.06 0.85 0.92 0.96 0.85 0.58 0.47 0.50 0.48 0.38 0.28 0.36 0.40 0.38 0.49 0.56 0.58 0.73 0.83 0.78 0.61 0.45 0.58 0.59 0.49 0.34 0.38
0.37 0.38 0.58 0.58 0.40 0.33 0.48 0.48 0.60 0.46 0.44 0.34 0.48 0.47 0.47 0.43 0.45 0.41 0.38 0.41 0.41 0.47 0.59 0.78 0.69 0.68 0.84 0.68 0.56 0.62 0.55 0.52 0.57 0.43 0.34 0.29 0.34 0.39 0.50 0.57 0.60 0.63 0.62 0.66 0.72 0.73 0.85 0.88 0.80 0.78 0.80 0.73 0.70 0.58
0.42 0.35 0.39 0.37 0.40 0.41 0.34 0.48 0.41 0.36 0.43 0.34 0.49 0.44 0.42 0.38 0.43 0.43 0.45 0.51 0.48 0.54 0.59 0.61 0.46 0.45 0.44 0.33 0.34 0.38 0.55 0.52 0.45 0.45 0.43 0.46 0.52 0.59 0.62 0.58 0.56 0.56 0.62 0.64 0.67 0.63 0.62 0.62 0.56 0.50 0.64 0.78 0.67 0.64
0.56 0.26 0.27 0.30 0.27 0.30 0.36 0.37 0.32 0.32 0.38 0.49 0.49 0.77 0.50 0.49 0.47 0.44 0.50 0.59 0.53 0.28 0.19 0.24 0.18 0.14 0.23 0.28 0.43 0.62 0.54 0.56 0.53 0.60 0.69 0.77 0.74 0.78 0.67 0.50 0.57 0.51 0.53 0.59 0.51 0.53 0.48 0.43 0.38 0.43 0.40 0.44 0.40 0.44
0.60 0.34 0.31 0.27 0.23 0.32 0.52 0.44 0.19 0.22 0.47 0.58 0.66 0.67 0.55 0.66 0.77 0.78 0.74 0.70 0.42 0.20 0.19 0.25 0.26 0.28 0.39 0.48 0.61 0.71 0.69 0.63 0.68 0.80 0.92 1.02 0.96 0.79 0.72 0.61 0.55 0.54 0.50 0.51 0.41 0.39 0.45 0.42 0.36 0.33 0.31 0.31 0.29 0.35
1.07 0.97 0.65 0.57 0.37 0.41 0.31 0.29 0.13 0.16 0.42 0.48 0.59 0.49 0.45 0.70 0.65 0.55 0.45 0.39 0.31 0.27 0.35 0.38 0.53 0.63 0.70 0.77 0.85 0.93 0.81 0.71 0.56 0.49 0.74 0.97 1.11 0.85 0.83 0.64 0.63 0.57 0.44 0.44 0.44 0.39 0.32 0.31 0.34 0.31 0.32 0.36 0.32 0.30
1.00 1.31 0.99 0.59 0.60 0.37 0.30 0.32 0.28 0.27 0.36 0.44 0.52 0.29 0.45 0.30 0.21 0.20 0.20 0.14 0.15 0.36 0.51 0.69 0.73 0.75 0.84 0.95 0.92 0.74 0.69 0.56 0.60 0.46 0.52 0.68 0.91 0.65 0.68 0.70 0.55 0.49 0.42 0.44 0.36 0.42 0.36 0.31 0.34 0.28 0.25 0.25 0.24 0.24
0.53 0.62 0.71 0.47 0.34 0.20 0.33 0.39 0.26 0.30 0.24 0.42 0.37 0.22 0.28 0.27 0.19 0.16 0.07 0.12 0.40 0.73 0.77 0.75 0.74 0.68 0.62 0.71 0.80 0.73 0.82 0.57 0.56 0.57 0.62 0.55 0.57 0.58 0.61 0.66 0.49 0.45 0.42 0.42 0.36 0.33 0.30 0.24 0.20 0.16 0.13 0.11 0.12 0.15
0.33 0.45 0.57 0.45 0.24 0.09 0.25 0.21 0.20 0.41 0.36 0.38 0.27 0.20 0.24 0.23 0.20 0.07 0.16 0.31 0.58 0.84 0.78 0.61 0.62 0.59 0.57 0.69 0.52 0.57 0.76 0.55 0.58 0.70 0.73 0.70 0.67 0.65 0.54 0.51 0.49 0.39 0.33 0.35 0.30 0.23 0.18 0.15 0.13 0.11 0.11 0.13 0.12 0.10
0.34 0.42 0.46 0.40 0.21 0.13 0.06 0.08 0.10 0.16 0.14 0.14 0.13 0.20 0.22 0.15 0.06 0.05 0.20 0.40 0.63 0.50 0.45 0.56 0.53 0.54 0.49 0.41 0.44 0.55 0.77 0.58 0.50 0.55 0.66 0.52 0.41 0.47 0.39 0.34 0.28 0.27 0.24 0.19 0.13 0.13 0.13 0.12 0.12 0.15 0.18 0.17 0.11 0.11
0.61 0.43 0.29 0.23 0.08 0.04 0.05 0.05 0.05 0.05 0.10 0.09 0.11 0.16 0.12 0.05 0.04 0.07 0.16 0.38 0.33 0.34 0.38 0.42 0.37 0.40 0.41 0.50 0.53 0.53 0.52 0.46 0.37 0.32 0.47 0.39 0.37 0.32 0.26 0.21 0.18 0.15 0.10 0.10 0.15 0.17 0.15 0.15 0.16 0.14 0.09 0.08 0.10 0.11
0.37 0.23 0.16 0.13 0.07 0.05 0.05 0.05 0.06 0.07 0.06 0.11 0.12 0.10 0.06 0.06 0.05 0.14 0.23 0.35 0.31 0.36 0.39 0.40 0.38 0.30 0.32 0.34 0.33 0.31 0.33 0.32 0.24 0.20 0.30 0.24 0.23 0.22 0.20 0.17 0.14 0.13 0.10 0.11 0.18 0.17 0.11 0.06 0.06 0.06 0.07 0.08 0.13 0.17
0.19 0.11 0.05 0.06 0.11 0.12 0.11 0.07 0.07 0.10 0.13 0.17 0.13 0.11 0.14 0.13 0.13 0.24 0.26 0.27 0.29 0.39 0.35 0.31 0.24 0.22 0.24 0.23 0.19 0.17 0.14 0.10 0.10 0.12 0.13 0.12 0.12 0.13 0.22 0.28 0.27 0.24 0.13 0.14 0.16 0.17 0.18 0.16 0.13 0.12 0.14 0.12 0.12 0.21
0.07 0.03 0.05 0.08 0.13 0.15 0.15 0.13 0.16 0.20 0.21 0.22 0.19 0.17 0.21 0.17 0.26 0.35 0.33 0.37 0.29 0.24 0.18 0.17 0.14 0.11 0.11 0.11 0.10 0.07 0.04 0.02 0.03 0.03 0.03 0.07 0.10 0.12 0.12 0.12 0.14 0.11 0.10 0.12 0.14 0.16 0.20 0.22 0.20 0.18 0.18 0.20 0.19 0.19
0.11 0.11 0.11 0.14 0.13 0.14 0.20 0.21 0.24 0.25 0.25 0.24 0.18 0.18 0.19 0.27 0.41 0.35 0.34 0.26 0.21 0.14 0.12 0.12 0.15 0.09 0.06 0.04 0.03 0.05 0.07 0.07 0.07 0.04 0.03 0.06 0.13 0.14 0.10 0.10 0.10 0.11 0.10 0.09 0.09 0.16 0.20 0.22 0.20 0.19 0.24 0.27 0.21 0.24
0.07 0.08 0.08 0.04 0.08 0.14 0.19 0.14 0.16 0.13 0.08 0.07 0.06 0.10 0.11 0.27 0.46 0.36 0.26 0.20 0.14 0.15 0.15 0.13 0.12 0.06 0.05 0.05 0.04 0.05 0.11 0.09 0.11 0.17 0.16 0.13 0.14 0.13 0.09 0.09 0.09 0.09 0.10 0.12 0.11 0.08 0.11 0.14 0.16 0.22 0.25 0.22 0.27 0.32
0.03 0.04 0.03 0.04 0.10 0.13 0.10 0.08 0.10 0.08 0.05 0.03 0.03 0.05 0.14 0.21 0.24 0.18 0.16 0.19 0.13 0.11 0.08 0.06 0.07 0.09 0.08 0.08 0.11 0.12 0.14 0.16 0.14 0.15 0.15 0.15 0.13 0.12 0.10 0.08 0.07 0.09 0.09 0.11 0.10 0.11 0.13 0.16 0.22 0.25 0.24 0.22 0.22 0.21
0.03 0.04 0.04 0.06 0.12 0.11 0.15 0.21 0.15 0.11 0.08 0.06 0.08 0.06 0.10 0.10 0.12 0.19 0.17 0.16 0.13 0.10 0.12 0.12 0.12 0.15 0.18 0.18 0.19 0.19 0.17 0.16 0.14 0.13 0.14 0.13 0.13 0.11 0.08 0.07 0.08 0.09 0.09 0.09 0.09 0.11 0.12 0.13 0.16 0.14 0.14 0.12 0.12 0.12
0.03 0.04 0.05 0.05 0.07 0.08 0.08 0.13 0.07 0.06 0.07 0.08 0.12 0.12 0.12 0.15 0.26 0.31 0.20 0.18 0.23 0.19 0.20 0.21 0.21 0.24 0.25 0.21 0.19 0.17 0.14 0.13 0.12 0.11 0.10 0.09 0.06 0.05 0.05 0.06 0.07 0.09 0.09 0.09 0.09 0.11 0.09 0.08 0.09 0.10 0.11 0.11 0.10 0.09